Flag for U.S.A. Weather past 2 weeks in Spokane, Washington, U.S.A.

Now
86 °F

Sunny.


Feels Like: 83 °F
Forecast: 59 / 84 °F
Wind: 7 mph from West

Location: Felts Field

Current Time: Aug 27, 2015 at 7:25:02 PM

Latest Report: Aug 27, 2015 at 6:53 PM


Visibility: 7 mi

Pressure: 29.92 "Hg (28.06 "Hg at 569m altitude)

Humidity: 20%

Dew point: 40 °F

Location of SpokaneLocation

Historic Weather in Spokane — Graph

°F

Spokane temperature yesterday

Maximum temperature yesterday: 94 °F (at 2:53 PM)
Minimum temperature yesterday: 56 °F (at 5:53 AM)
Average temperature yesterday: 74 °F

Past Weeks' High & Low Weather Summary

 TemperatureHumidityPressure
High101 °F (Aug 13, 5:53 PM)80% (Aug 16, 4:53 AM)30.18 "Hg (Aug 16, 4:53 AM)
Low47 °F (Aug 22, 5:53 AM)11% (Aug 19, 3:53 PM)29.61 "Hg (Aug 21, 12:53 AM)
Average72 °F38%29.93 "Hg
* Reported Aug 12 5:53 PM — Aug 27 5:53 PM, Spokane, Weather by CustomWeather, © 2015

Note: Actual official high and low records may vary slightly from our data, if they occured in-between our weather recording intervals... More about our weather records

Advertising

Spokane weather history for previous 24 hours

 ConditionsComfort  
Time TempWeatherWind HumidityBarometerVisibility
5:53 PM
Thu, Aug 27
87 °FSunny.8 mph19%29.92 "Hg6 mi
4:53 PM90 °FSunny.10 mph17%29.93 "Hg7 mi
3:53 PM88 °FPassing clouds.7 mph19%29.94 "Hg7 mi
2:53 PM90 °FSunny.14 mph17%29.96 "Hg7 mi
1:53 PM88 °FSunny.10 mph17%29.98 "Hg7 mi
12:53 PM84 °FSunny.8 mph21%30.00 "Hg9 mi
11:53 AM83 °FSunny.9 mph22%30.01 "Hg8 mi
10:53 AM78 °FSunny.3 mph27%30.02 "Hg6 mi
9:53 AM75 °FSunny.No wind31%30.01 "Hg5 mi
8:53 AM70 °FSunny.No wind38%30.01 "Hg4 mi
7:53 AM63 °FSunny.3 mph52%30.01 "Hg3 mi
6:53 AM60 °FClear.5 mph56%29.99 "Hg3 mi
5:53 AM60 °FClear.3 mph53%29.97 "Hg3 mi
4:53 AM61 °FClear.5 mph56%29.95 "Hg3 mi
3:53 AM60 °FClear.No wind56%29.94 "Hg3 mi
2:53 AM62 °FPassing clouds.3 mph52%29.92 "Hg2 mi
2:00 AM67 °FOvercast.No wind36%29.97 "Hg3 mi
12:53 AM64 °FPassing clouds.3 mph43%29.91 "Hg2 mi
11:53 PM
Wed, Aug 26
64 °FPassing clouds.No wind50%29.90 "Hg2 mi
10:53 PM67 °FHaze.5 mph35%29.90 "Hg2 mi
9:53 PM70 °FPassing clouds.No wind31%29.89 "Hg2 mi
8:53 PM80 °FPassing clouds.3 mph23%29.87 "Hg2 mi
7:53 PM83 °FOvercast.6 mph21%29.85 "Hg2 mi
Weather by CustomWeather, © 2015

See weather overviewHow to use our weather pages